Left ArrowRight Arrow

40.95324, -117.48929

Hourly Observations for June 16, 2024

Temp ( °F °C ) Dew Point ( °F °C ) Humidity (%) Winds ( mph kmh ) Pressure ( in mb ) Visibility ( mi km ) Precip ( " mm )
12:56 am 00:56 Clear 56 13.3 18 -7.8 22 22 N 9 15 29.87 1012 10 16 0.00 0.00
1:56 am 01:56 Clear 51 10.6 20 -6.7 29 29 NNW 7 11 29.88 1012 10 16 0.00 0.00
2:56 am 02:56 Clear 47 8.3 19 -7.2 32 32 NNW 7 11 29.87 1012 10 16 0.00 0.00
3:56 am 03:56 Clear 48 8.9 17 -8.3 29 29 NNW 12 19 29.88 1012 10 16 0.00 0.00
4:56 am 04:56 Clear 44 6.7 18 -7.8 35 35 NW 7 11 29.89 1012 10 16 0.00 0.00
5:56 am 05:56 Sunny 45 7.2 18 -7.8 33 33 WNW 6 9 29.90 1013 10 16 0.00 0.00
6:56 am 06:56 Sunny 53 11.7 18 -7.8 25 25 NNE 8 13 29.88 1012 10 16 0.00 0.00
7:56 am 07:56 Sunny 57 13.9 20 -6.7 23 23 ENE 14 22 29.88 1012 10 16 0.00 0.00
8:56 am 08:56 Sunny 60 15.6 21 -6.1 22 22 NE 12 19 29.88 1012 10 16 0.00 0.00
9:56 am 09:56 Sunny 64 17.8 22 -5.6 20 20 N 8 13 29.84 1011 10 16 0.00 0.00
10:56 am 10:56 Sunny 68 20 21 -6.1 17 17 VRB 7 11 29.82 1010 10 16 0.00 0.00
11:56 am 11:56 Sunny 71 21.7 21 -6.1 15 15 W 8 13 29.79 1009 10 16 0.00 0.00
12:56 pm 12:56 Sunny 75 23.9 17 -8.3 11 11 undefined N/A 29.75 1008 10 16 0.00 0.00
1:56 pm 13:56 Sunny with Light Rain 77 25 18 -7.8 11 11 SW 17 28 29.74 1007 10 16 0.01 0.13
2:56 pm 14:56 Sunny with Light Rain 80 26.7 18 -7.8 10 10 W 16 26 29.71 1006 10 16 0.01 0.13
3:56 pm 15:56 Sunny with Light Rain 79 26.1 17 -8.3 10 10 WSW 9 15 29.67 1005 10 16 0.01 0.13
4:56 pm 16:56 Sunny 79 26.1 18 -7.8 10 10 SW 16 26 29.66 1004 10 16 0.01 0.13
5:56 pm 17:56 Sunny with Light Rain 79 26.1 20 -6.7 11 11 SW 15 24 29.64 1004 10 16 0.01 0.13
6:56 pm 18:56 Mostly Cloudy with Light Rain 77 25 22 -5.6 13 13 WSW 15 24 29.61 1003 10 16 0.01 0.13
7:56 pm 19:56 Sunny with Light Rain 75 23.9 27 -2.8 17 17 W 21 33 29.59 1002 10 16 0.01 0.13
8:56 pm 20:56 Clear with Light Rain 71 21.7 29 -1.7 21 21 W 13 20 29.61 1003 10 16 0.01 0.13
9:56 pm 21:56 Mostly Clear with Light Rain 70 21.1 30 -1.1 23 23 W 18 30 29.62 1003 10 16 0.01 0.13
10:56 pm 22:56 Clear with Light Rain 66 18.9 32 0 28 28 W 23 37 29.62 1003 10 16 0.01 0.13
11:56 pm 23:56 Clear with Light Rain 61 16.1 28 -2.2 28 28 NNW 12 19 29.65 1004 10 16 0.01 0.13

Powered by Vaisala Xweather